Heure de lever du soleil au 23-02-2017 / 53 ° de l'année/ semaine 0807 h 46 Heure de coucher du soleil au 23-02-2017 / 53 ° de l'année/ semaine 0818 h 22

Compte Facebook Association Météo Centre     Compte Twitter Association Météo Centre - @AssoMétéoCentre     Chaîne Youtube Association Météo Centre     Bouton contact Association Météo Centre 

Gif alerte météo

Choix de la station :
Période à consulter :
Aujourd'hui


 

Conditions météo à Abbeville - Altitude 77m

  

Date du relevé23/02/2017 à 14:00
Base des nuages300 à 600m
Visibilité15km
Nébulosité4/8 (nuages épars)
Vent31 km/h O
Température10.3 °C
Humidité66.8 %
Point de rosée4.4 °C
Pression absolue990.6 hPa
Pression relative999.2 hPa
Variation pression-0.2 hPa stationnaire ou en hausse puis en baisse, puis en baisse plus rapide
Nuages basParmi les nuages présents, il y a prédominance de Cumulus à faible extension verticale et paraissant aplatis.
Nuages moyensPas d’Altocumulus, d’Altostratus ni de Nimbostratus.
Nuages élevésLa nébulosité des Cirrus denses, des Cirrus avec bourgeonnements en forme de petites tours ou de créneaux et des Cirrus en flocons, considérés dans leur ensemble, est supérieure à la nébulosité des Cirrus en forme de filaments, de brins ou de crochets, considérés dans leur ensemble.


Historique météo des dernières 24 heures à Abbeville


Date - Heure Base des nuages Visibilité Nébulosité Vent Température Humidité Point rosée Pression Précipitations Temps
23/02 14:00 300 à 600m 15km 4/8 31 km/h O 10.3 °C 66.8 % 4.4 °C 999.2 hPa
23/02 13:00 300 à 600m 15km 7/8 28 km/h OSO 10.7 °C 74.2 % 6.3 °C 999.3 hPa 0.8 mm/6h
23/02 12:00 200 à 300m 4500m 7/8 22 km/h OSO 9.6 °C 87.9 % 7.7 °C 999.6 hPa
23/02 11:00 200 à 300m 8km 8/8 17 km/h SO 9.4 °C 86.7 % 7.3 °C 999.4 hPa
23/02 10:00 200 à 300m 20km 8/8 15 km/h SSO 9.5 °C 82.1 % 6.6 °C 1001 hPa
23/02 09:00 200 à 300m 20km 8/8 11 km/h SSO 8.8 °C 89.1 % 7.1 °C 1002.3 hPa
23/02 08:00 300 à 600m 20km 8/8 13 km/h SO 9 °C 84.9 % 6.6 °C 1003.3 hPa
23/02 07:00 600 à 1000m 20km 8/8 11 km/h SO 9.3 °C 81 % 6.2 °C 1004.4 hPa 0.2 mm/12h
23/02 06:00 600 à 1000m 20km 8/8 11 km/h SO 9.1 °C 83.8 % 6.5 °C 1005.6 hPa
23/02 05:00 20km 13 km/h SO 9.2 °C 83.8 % 6.6 °C 1006.4 hPa
23/02 04:00 20km 13 km/h OSO 9.3 °C 83.8 % 6.7 °C 1007.8 hPa
23/02 03:00 20km 15 km/h OSO 9.5 °C 82.1 % 6.6 °C 1009 hPa
23/02 02:00 20km 15 km/h OSO 9.7 °C 79.9 % 6.4 °C 1009.8 hPa
23/02 01:00 20km 19 km/h OSO 10 °C 81.1 % 6.9 °C 1010.6 hPa 0.2 mm/6h
23/02 00:00 20km 17 km/h OSO 9.9 °C 86.2 % 7.7 °C 1011 hPa
22/02 23:00 20km 15 km/h OSO 10.2 °C 86.2 % 8 °C 1011.2 hPa
22/02 22:00 20km 17 km/h OSO 10.2 °C 88 % 8.3 °C 1011.7 hPa
22/02 21:00 20km 20 km/h OSO 10.3 °C 88 % 8.4 °C 1011.8 hPa
22/02 20:00 19km 20 km/h OSO 10 °C 92.2 % 8.8 °C 1011.8 hPa
22/02 19:00 9km 20 km/h OSO 9.9 °C 92.2 % 8.7 °C 1012.1 hPa 0.2 mm/12h
22/02 18:00 20km 19 km/h OSO 10.4 °C 89.2 % 8.7 °C 1012.1 hPa
22/02 17:00 300 à 600m 20km 8/8 20 km/h OSO 10.3 °C 91 % 8.9 °C 1012.3 hPa
22/02 16:00 200 à 300m 20km 8/8 22 km/h OSO 10.6 °C 86.3 % 8.4 °C 1012.8 hPa
22/02 15:00 100 à 200m 15km 8/8 20 km/h OSO 10.7 °C 85.1 % 8.3 °C 1012.8 hPa

L'association Météo Centre n'est pas responsable de la mise à jour de ces données.

Météo-Centre.fr depuis 2008
Nos informations ne doivent jamais servir à la protection des biens et des personnes. Elles n'engagent pas la responsabilité de l'association Météo Centre.
Contact - Haut de page - Partenaires - Mentions légales